This is the latest recevied weather packets stored in our database for station/object KE6YLF. If no packets are shown the sender has not sent any weather packets the latest 10 day(s).
| Time | Temp. | Humidity | Pressure | Rain* | Wind** | Luminosity | Snow |
|---|---|---|---|---|---|---|---|
| 1788450330 | 31.11° C | 54% | 1077.7 hPa | 0 mm | - | - | - |
| 1788450026 | 30.56° C | 55% | 1077.6 hPa | 0 mm | - | - | - |
| 1788449720 | 30.56° C | 56% | 1077.6 hPa | 0 mm | - | - | - |
| 1788449416 | 30.56° C | 55% | 1077.7 hPa | 0 mm | - | - | - |
| 1788449112 | 30.56° C | 55% | 1077.7 hPa | 0 mm | - | - | - |
| 1788448809 | 30.56° C | 55% | 1077.7 hPa | 0 mm | - | - | - |
| 1788448508 | 30° C | 55% | 1077.9 hPa | 0 mm | - | - | - |
| 1788448203 | 30° C | 55% | 1077.5 hPa | 0 mm | - | - | - |
| 1788447903 | 29.44° C | 57% | 1077.7 hPa | 0 mm | - | - | - |
| 1788447597 | 28.89° C | 57% | 1077.7 hPa | 0 mm | - | - | - |
| 1788447293 | 29.44° C | 57% | 1077.7 hPa | 0 mm | - | - | - |
| 1788446988 | 29.44° C | 57% | 1077.7 hPa | 0 mm | - | - | - |
| 1788446687 | 28.89° C | 58% | 1077.7 hPa | 0 mm | - | - | - |
| 1788446383 | 28.89° C | 59% | 1077.7 hPa | 0 mm | - | - | - |
| 1788446079 | 28.89° C | 59% | 1077.5 hPa | 0 mm | - | - | - |
| 1788445775 | 28.89° C | 59% | 1077.6 hPa | 0 mm | - | - | - |
| 1788445470 | 28.33° C | 60% | 1077.7 hPa | 0 mm | - | - | - |
| 1788445166 | 28.33° C | 61% | 1077.6 hPa | 0 mm | - | - | - |
| 1788444856 | 27.78° C | 62% | 1077.5 hPa | 0 mm | - | - | - |
| 1788444552 | 27.78° C | 63% | 1077.5 hPa | 0 mm | - | - | - |
| 1788444247 | 27.78° C | 63% | 1077.2 hPa | 0 mm | - | - | - |
| 1788443942 | 27.22° C | 63% | 1077.4 hPa | 0 mm | - | - | - |
| 1788443637 | 27.78° C | 63% | 1077.5 hPa | 0 mm | - | - | - |
| 1788443336 | 27.22° C | 64% | 1077.3 hPa | 0 mm | - | - | - |
| 1788443031 | 27.22° C | 64% | 1077.2 hPa | 0 mm | - | - | - |
* Rain latest hour (hover to see other rain measurements)
** Current wind speed in m/s (hover to see current wind gust speed)